User: anonymous   Login
Location: Home
(42.5358°N, 72.7383°W)
Time: 13:13:21
(UTC-05:00)
Language:

SR - Orbit

View from above orbital plane
View from above orbital plane
View from above satellite
View from above satellite

Ground track
Ground track

The orbit data is extracted from the following two-line orbital elements,

1 00046U 60007B   21339.56491305  .00000078  00000-0  38764-4 0  9991
2 00046  66.6918  37.7496 0202388  91.5752 270.8549 14.49478142216802
Epoch (UTC): 05 December 2021 13:33:28
Eccentricity: 0.0202388
inclination: 66.6918°
perigee height: 583 km
apogee height: 871 km
right ascension of ascending node: 37.7496°
argument of perigee: 91.5752°
revolutions per day: 14.49478142
mean anomaly at epoch: 270.8549°
orbit number at epoch: 21680

The dashed part of the orbit path shows where the satellite is in the earth's shadow,  

DLR